| time (UTC) | temp C | wind direction | speed KPH | gust KPH | rain 1hr cm | rain 24hr cm | rain mn cm | humidity % | barometer mb |
| 20260831174509 | 23 | 93 | 0.0 | 0.0 | 0.00 | 0.10 | 0.00 | 53 | 1023.3 |
| 20260831173007 | 23 | 169 | 0.0 | 1.6 | 0.00 | 0.10 | 0.00 | 53 | 1023.3 |
| 20260831171506 | 23 | 96 | 0.0 | 1.6 | 0.00 | 0.10 | 0.00 | 52 | 1023.4 |
| 20260831170007 | 24 | 102 | 0.0 | 4.8 | 0.00 | 0.10 | 0.00 | 51 | 1023.5 |
| 20260831164505 | 24 | 247 | 0.0 | 0.0 | 0.00 | 0.10 | 0.00 | 50 | 1023.6 |
| 20260831163010 | 23 | 78 | 0.0 | 0.0 | 0.00 | 0.10 | 0.00 | 51 | 1023.8 |
| 20260831161504 | 23 | 110 | 0.0 | 0.0 | 0.00 | 0.10 | 0.00 | 54 | 1024.0 |
| 20260831160104 | 23 | 120 | 0.0 | 0.0 | 0.00 | 0.10 | 0.00 | 55 | 1024.3 |
| 20260831154616 | 23 | 104 | 0.0 | 1.6 | 0.00 | 0.10 | 0.00 | 54 | 1024.3 |
| 20260831153057 | 22 | 246 | 0.0 | 0.0 | 0.00 | 0.10 | 0.00 | 61 | 1024.4 |
| 20260831151555 | 22 | 97 | 0.0 | 0.0 | 0.00 | 0.10 | 0.00 | 60 | 1024.5 |
| 20260831150053 | 22 | 97 | 0.0 | 0.0 | 0.00 | 0.10 | 0.00 | 56 | 1024.5 |
| 20260831144552 | 22 | 244 | 0.0 | 0.0 | 0.00 | 0.10 | 0.00 | 61 | 1024.4 |
| 20260831143059 | 21 | 94 | 0.0 | 0.0 | 0.00 | 0.10 | 0.00 | 60 | 1024.5 |
| 20260831141548 | 21 | 259 | 0.0 | 0.0 | 0.00 | 0.10 | 0.00 | 61 | 1024.6 |
| 20260831140045 | 21 | 345 | 0.0 | 0.0 | 0.00 | 0.10 | 0.00 | 61 | 1024.6 |
| 20260831134544 | 21 | 77 | 0.0 | 0.0 | 0.00 | 0.10 | 0.00 | 61 | 1024.6 |
| 20260831133041 | 20 | 98 | 0.0 | 0.0 | 0.00 | 0.10 | 0.00 | 72 | 1024.5 |
| 20260831131543 | 20 | 112 | 0.0 | 0.0 | 0.00 | 0.10 | 0.00 | 73 | 1024.3 |
| 20260831130038 | 18 | 341 | 0.0 | 0.0 | 0.00 | 0.10 | 0.00 | 86 | 1024.3 |
| 20260831124538 | 17 | 308 | 0.0 | 0.0 | 0.00 | 0.10 | 0.00 | 91 | 1024.5 |
| 20260831123028 | 16 | 307 | 0.0 | 0.0 | 0.00 | 0.10 | 0.00 | 92 | 1024.4 |
| 20260831121527 | 15 | 307 | 0.0 | 0.0 | 0.00 | 0.10 | 0.00 | 93 | 1024.2 |
| 20260831120047 | 15 | 307 | 0.0 | 0.0 | 0.00 | 0.10 | 0.00 | 94 | 1024.0 |
| 20260831114526 | 13 | 307 | 0.0 | 0.0 | 0.00 | 0.10 | 0.00 | 95 | 1024.0 |
| 20260831113026 | 12 | 307 | 0.0 | 0.0 | 0.00 | 0.10 | 0.00 | 95 | 1024.2 |
| 20260831111524 | 12 | 307 | 0.0 | 0.0 | 0.00 | 0.10 | 0.00 | 95 | 1024.1 |
| 20260831110026 | 12 | 307 | 0.0 | 0.0 | 0.00 | 0.10 | 0.00 | 94 | 1024.1 |
| 20260831104522 | 12 | 307 | 0.0 | 0.0 | 0.00 | 0.10 | 0.00 | 94 | 1023.9 |
| 20260831103024 | 12 | 307 | 0.0 | 0.0 | 0.00 | 0.10 | 0.00 | 95 | 1023.9 |
| 20260831101519 | 12 | 307 | 0.0 | 0.0 | 0.00 | 0.10 | 0.00 | 94 | 1023.6 |
| 20260831100017 | 12 | 307 | 0.0 | 0.0 | 0.00 | 0.10 | 0.00 | 94 | 1023.4 |
| 20260831094515 | 12 | 307 | 0.0 | 0.0 | 0.00 | 0.10 | 0.00 | 94 | 1023.1 |
| 20260831093015 | 12 | 307 | 0.0 | 0.0 | 0.00 | 0.10 | 0.00 | 94 | 1023.1 |
| 20260831091511 | 12 | 307 | 0.0 | 0.0 | 0.00 | 0.10 | 0.00 | 94 | 1022.9 |
| 20260831090009 | 13 | 307 | 0.0 | 0.0 | 0.00 | 0.10 | 0.00 | 94 | 1022.7 |
| 20260831084510 | 13 | 307 | 0.0 | 0.0 | 0.00 | 0.10 | 0.00 | 94 | 1022.6 |
| 20260831083005 | 13 | 307 | 0.0 | 0.0 | 0.00 | 0.10 | 0.00 | 94 | 1022.6 |
| 20260831081502 | 13 | 307 | 0.0 | 0.0 | 0.00 | 0.10 | 0.00 | 94 | 1022.5 |
| 20260831080002 | 13 | 307 | 0.0 | 0.0 | 0.00 | 0.10 | 0.00 | 94 | 1022.4 |
| 20260831074558 | 14 | 307 | 0.0 | 0.0 | 0.00 | 0.10 | 0.00 | 94 | 1022.2 |
| 20260831073058 | 14 | 307 | 0.0 | 0.0 | 0.00 | 0.10 | 0.00 | 93 | 1022.0 |
| 20260831071557 | 14 | 307 | 0.0 | 0.0 | 0.00 | 0.10 | 0.00 | 93 | 1021.9 |
| 20260831070053 | 15 | 307 | 0.0 | 0.0 | 0.00 | 0.10 | 0.00 | 93 | 1021.9 |
| 20260831064551 | 15 | 307 | 0.0 | 0.0 | 0.00 | 0.10 | 0.00 | 93 | 1021.7 |
| 20260831063049 | 15 | 307 | 0.0 | 0.0 | 0.00 | 0.10 | 0.00 | 93 | 1021.5 |
| 20260831061547 | 15 | 307 | 0.0 | 0.0 | 0.00 | 0.10 | 0.00 | 93 | 1021.5 |
| 20260831060050 | 15 | 307 | 0.0 | 0.0 | 0.00 | 0.10 | 0.00 | 93 | 1021.3 |
| 20260831054544 | 16 | 307 | 0.0 | 0.0 | 0.00 | 0.10 | 0.00 | 93 | 1021.5 |
| 20260831053042 | 16 | 307 | 0.0 | 0.0 | 0.00 | 0.10 | 0.00 | 93 | 1021.2 |
| 20260831051551 | 16 | 307 | 0.0 | 0.0 | 0.00 | 0.10 | 0.00 | 93 | 1021.1 |
| 20260831050037 | 16 | 307 | 0.0 | 0.0 | 0.00 | 0.10 | 0.00 | 92 | 1021.1 |
| 20260831044536 | 17 | 307 | 0.0 | 0.0 | 0.00 | 0.10 | 0.00 | 92 | 1021.2 |
| 20260831043033 | 17 | 307 | 0.0 | 0.0 | 0.00 | 0.10 | 0.00 | 92 | 1021.1 |
| 20260831041535 | 17 | 326 | 0.0 | 0.0 | 0.00 | 0.10 | 0.00 | 92 | 1021.0 |
| 20260831040031 | 17 | 326 | 0.0 | 0.0 | 0.00 | 0.10 | 0.10 | 92 | 1020.9 |
| 20260831034529 | 17 | 326 | 0.0 | 0.0 | 0.00 | 0.10 | 0.10 | 91 | 1020.6 |
| 20260831033029 | 18 | 315 | 0.0 | 0.0 | 0.05 | 0.10 | 0.10 | 91 | 1020.6 |
| 20260831031530 | 18 | 315 | 0.0 | 0.0 | 0.10 | 0.10 | 0.10 | 91 | 1020.8 |
| 20260831030027 | 18 | 316 | 0.0 | 0.0 | 0.10 | 0.10 | 0.10 | 90 | 1020.6 |
| 20260831024531 | 19 | 315 | 0.0 | 0.0 | 0.10 | 0.10 | 0.10 | 88 | 1020.7 |
| 20260831023027 | 20 | 315 | 0.0 | 0.0 | 0.05 | 0.05 | 0.05 | 86 | 1021.0 |
| 20260831021529 | 21 | 65 | 0.0 | 0.0 | 0.00 | 0.00 | 0.00 | 79 | 1020.8 |
| 20260831020026 | 21 | 65 | 0.0 | 0.0 | 0.00 | 0.00 | 0.00 | 78 | 1020.4 |
| 20260831014529 | 21 | 65 | 0.0 | 0.0 | 0.00 | 0.00 | 0.00 | 78 | 1020.3 |
| 20260831013027 | 21 | 65 | 0.0 | 0.0 | 0.00 | 0.00 | 0.00 | 77 | 1019.8 |
| 20260831011536 | 21 | 65 | 0.0 | 0.0 | 0.00 | 0.00 | 0.00 | 76 | 1019.7 |
| 20260831010024 | 22 | 354 | 0.0 | 0.0 | 0.00 | 0.00 | 0.00 | 75 | 1019.6 |
| 20260831004524 | 22 | 82 | 0.0 | 0.0 | 0.00 | 0.00 | 0.00 | 72 | 1019.5 |
| 20260831003033 | 22 | 43 | 0.0 | 0.0 | 0.00 | 0.00 | 0.00 | 71 | 1019.3 |
| 20260831001522 | 22 | 44 | 0.0 | 0.0 | 0.00 | 0.00 | 0.00 | 70 | 1019.1 |
| 20260831000023 | 22 | 37 | 0.0 | 0.0 | 0.00 | 0.00 | 0.00 | 70 | 1018.9 |
| 20260830234533 | 22 | 34 | 0.0 | 0.0 | 0.00 | 0.00 | 0.00 | 70 | 1018.7 |
| 20260830233021 | 22 | 86 | 0.0 | 0.0 | 0.00 | 0.00 | 0.00 | 70 | 1018.9 |
| 20260830231520 | 23 | 65 | 0.0 | 0.0 | 0.00 | 0.00 | 0.00 | 67 | 1018.8 |
| 20260830230021 | 23 | 102 | 0.0 | 0.0 | 0.00 | 0.00 | 0.00 | 67 | 1018.9 |
| 20260830224518 | 23 | 86 | 0.0 | 0.0 | 0.00 | 0.00 | 0.00 | 66 | 1019.0 |
| 20260830223016 | 23 | 30 | 0.0 | 0.0 | 0.00 | 0.00 | 0.00 | 63 | 1019.2 |
| 20260830221520 | 23 | 74 | 0.0 | 0.0 | 0.00 | 0.00 | 0.00 | 63 | 1019.2 |
| 20260830220016 | 24 | 53 | 0.0 | 0.0 | 0.00 | 0.00 | 0.00 | 64 | 1019.2 |
| 20260830214514 | 24 | 102 | 0.0 | 0.0 | 0.00 | 0.00 | 0.00 | 65 | 1019.1 |
| 20260830213017 | 24 | 84 | 0.0 | 0.0 | 0.00 | 0.00 | 0.00 | 65 | 1019.1 |
| 20260830211512 | 24 | 15 | 0.0 | 0.0 | 0.00 | 0.00 | 0.00 | 65 | 1019.2 |
| 20260830210010 | 25 | 65 | 0.0 | 0.0 | 0.00 | 0.00 | 0.00 | 64 | 1019.3 |
| 20260830204510 | 25 | 341 | 0.0 | 0.0 | 0.00 | 0.00 | 0.00 | 66 | 1019.3 |
| 20260830203008 | 25 | 341 | 0.0 | 0.0 | 0.00 | 0.00 | 0.00 | 67 | 1019.5 |
| 20260830201506 | 24 | 341 | 0.0 | 0.0 | 0.00 | 0.00 | 0.00 | 65 | 1019.9 |
| 20260830200013 | 24 | 341 | 0.0 | 0.0 | 0.00 | 0.00 | 0.00 | 67 | 1020.0 |
| 20260830194503 | 25 | 341 | 0.0 | 0.0 | 0.00 | 0.00 | 0.00 | 62 | 1020.3 |
| 20260830193000 | 25 | 335 | 0.0 | 0.0 | 0.00 | 0.00 | 0.00 | 63 | 1020.6 |
| 20260830191559 | 25 | 335 | 0.0 | 0.0 | 0.00 | 0.00 | 0.00 | 57 | 1020.7 |
| 20260830190125 | 26 | 271 | 0.0 | 0.0 | 0.00 | 0.00 | 0.00 | 55 | 1020.8 |
| 20260830184609 | 26 | 34 | 0.0 | 0.0 | 0.00 | 0.00 | 0.00 | 59 | 1020.9 |
| 20260830183103 | 26 | 33 | 0.0 | 0.0 | 0.00 | 0.00 | 0.00 | 54 | 1021.1 |
| 20260830181555 | 26 | 350 | 0.0 | 0.0 | 0.00 | 0.00 | 0.00 | 56 | 1021.1 |
| 20260830180054 | 26 | 243 | 0.0 | 0.0 | 0.00 | 0.00 | 0.00 | 59 | 1021.5 |